Weather Roundup
Issued by NWS Chicago, IL

Home | Current Version | Previous Version | Text Only | Print | Product List | Glossary On
Versions: 1 2 3 4 5 6 7 8 9 10 11 12 13 14 15 16 17 18 19 20 21 22 23 24 25 26 27 28 29 30 31 32 33 34 35 36 37 38 39 40 41 42 43 44 45 46 47 48 49 50
000
NZUS59 KLOT 302210
HRRLOT

CHICAGO AREA WEATHER ROUNDUP
NATIONAL WEATHER SERVICE CHICAGO/ROMEOVILLE IL
500 PM CDT TUE SEP 30 2014

NOTE: "FAIR" INDICATES FEW OR NO CLOUDS BELOW 12,000 FEET WITH NO
SIGNIFICANT WEATHER AND/OR OBSTRUCTIONS TO VISIBILITY.

* THESE STATIONS ARE NOT UNDER NWS QUALITY CONTROL. THEY ALSO MAY NOT
  REPORT WEATHER SUCH AS PRECIPITATION OR FOG.

ILZ005-006-012>014-019>023-302300-
NORTHEAST ILLINOIS

CITY           SKY/WX    TMP DP  RH WIND       PRES   REMARKS
OHARE          CLOUDY    55  46  71 N7        30.01R
MIDWAY         PTSUNNY   59  48  67 NE12      30.00S
AURORA         PTSUNNY   57  45  64 NE9       30.00F
LANSING*       CLOUDY    56  48  76 N6        30.00R
JOLIET*        MOSUNNY   56  47  70 NE8       30.00S
WAUKEGAN       NOT AVBL
DUPAGE AIRPORT CLOUDY    57  46  66 NE9       30.00S
WHEELING       CLOUDY    55  48  77 NE6G17    30.01F
KANKAKEE*      MOSUNNY   59  49  68 NE9       30.00R
MORRIS*        PTSUNNY   59  49  67 E7        29.98S
LEWIS AIRPORT* CLOUDY    56  46  68 NE8       30.01R
NORTHERLY IS     N/A     55  49  80 NE12        N/A
$$

WIZ051-052-058>065-066-070>072-302300-
SOUTHEAST WISCONSIN

CITY           SKY/WX    TMP DP  RH WIND       PRES   REMARKS
MILWAUKEE      CLOUDY    52  46  80 N12       30.03F
KENOSHA*       CLOUDY    52  48  86 N9        30.03F
RACINE*        CLOUDY    52  48  86 N12       30.04F
BURLINGTON     CLOUDY    53  43  69 E7        30.02R
WAUKESHA       CLOUDY    52  43  71 E8        30.03S
WEST BEND      CLOUDY    50  41  71 NE8       30.04R
$$

INZ001>003-010>013-019-020-302300-
NORTHWEST INDIANA

CITY           SKY/WX    TMP DP  RH WIND       PRES   REMARKS
GARY*          CLOUDY    57  48  72 N6        30.01F
MICHIGAN CITY* NOT AVBL
RENSSELAER*    NOT AVBL
VALPARAISO     CLOUDY    55  46  71 VRB5      30.00S
$$

LMZ740>746-302300-
SOUTHERN LAKE MICHIGAN

STATION/POSITION TIME  SKY/WX   TEMP WIND        PRES    VSBY
                                AIR  DIR/SP/G
                 (UTC)          (F)  (DEG/KT/KT) (MB)    (MI)
HARRISON CRIB    2200            54   10/ 16/ 20   N/A
BURNHAM HARBOR   2200            55   10/ 13/ 16   N/A
CALUMET HARBOR   2200            56   20/  8/ 13 1014.9R
BURNS HARBOR     NOT AVBL
MICHIGAN CITY    2200            54  360/ 14/ 16   N/A
$$

ABBREVIATIONS USED IN REMARKS
   TC - TEMPERATURE IN CELSIUS
  WCI - WIND CHILL INDEX
   HX - HEAT INDEX
  VSB - VISIBILITY
$$



USA.gov is the U.S. government's official web portal to all federal, state and local government web resources and services.